Voltar ao catálogo

STARLINK-38024

AtivoComunicaçõesSSO
NORAD 69975·PAYLOAD·🇺🇸 United States

Lançado Jul 11, 2026 de Vandenberg Space Force Base

Loading…

Próximas Passagens (próximas 24 horas)

TLE

AtualizadoSource: CelesTrak SupGP

Época: Sep 15, 2026, 03:12 UTC

1 69975C 26159A   26258.13381944 -.02554100  00000+0 -45250-1 0  2588
2 69975  97.2853  99.9239 0002100  89.0151  63.6125 15.51608363    12

Acompanhe STARLINK-38024 em tempo real com AllMySat

Download on the App Store